Torroella de Montgrí (Baix Empordà)





Hora UTC 06:25
Temperatura 18.8 ºC
Humitat 87.0 %
Pressió 1012.7 hPa
Pluja 0.0 mm
Velocitat vent 0.0 km/h
Direcció vent

Dades diàries 2024-05-30



Hora UTC (hivern +1h; estiu +2h)
Temperatura (ºC) Humitat (%) Pressió (hPa) Velocitat vent (km/h) Precipitació (mm)
Hora UTC Aire Humitat Pressió Vel. Dir. Vel. Max Dir. Intent. màx 5 min.
00:05 18.8 90.0 1014.4 0.0 0.0 0.0
00:15 18.8 90.0 1014.4 0.0 1.6 0.0
00:25 18.8 90.0 1014.2 0.0 1.6 0.0
00:35 18.8 89.0 1014.1 0.0 1.6 0.0
00:45 18.8 89.0 1014.1 0.0 1.6 0.0
00:55 18.9 89.0 1014.1 0.0 1.6 0.0
01:05 18.9 89.0 1013.9 0.0 1.6 0.0
01:15 18.9 89.0 1013.9 0.0 1.6 0.0
01:25 18.8 89.0 1013.8 0.0 3.2 0.0
01:35 18.6 87.0 1013.8 1.6 3.2 0.0
01:45 18.6 87.0 1013.8 1.6 3.2 0.0
01:55 18.6 86.0 1013.6 0.0 3.2 0.0
02:05 18.4 87.0 1013.4 0.0 3.2 0.0
02:15 18.4 87.0 1013.4 0.0 3.2 0.0
02:25 18.3 88.0 1013.4 0.0 3.2 0.0
02:35 18.0 88.0 1013.3 1.6 6.4 0.0
02:45 18.0 88.0 1013.3 1.6 6.4 0.0
02:55 17.6 86.0 1013.1 0.0 6.4 0.0
03:05 17.5 86.0 1013.0 0.0 6.4 0.0
03:15 17.5 86.0 1013.0 0.0 6.4 0.0
03:25 17.8 86.0 1012.9 0.0 6.4 0.0
03:35 18.0 86.0 1012.8 0.0 6.4 0.0
03:45 18.0 86.0 1012.8 0.0 6.4 0.0
03:55 17.8 87.0 1012.7 0.0 6.4 0.0
04:05 17.4 88.0 1012.7 0.0 6.4 0.0
04:15 17.4 88.0 1012.7 0.0 6.4 0.0
04:25 17.4 88.0 1012.7 0.0 6.4 0.0
04:35 17.7 87.0 1012.7 0.0 6.4 0.0
04:45 17.7 87.0 1012.7 0.0 6.4 0.0
04:55 17.6 87.0 1012.7 1.6 6.4 0.0
05:05 17.7 87.0 1012.7 0.0 6.4 0.0
05:15 17.7 87.0 1012.7 0.0 6.4 0.0
05:25 17.7 88.0 1012.8 0.0 6.4 0.0
05:35 17.7 89.0 1012.8 0.0 6.4 0.0
05:45 17.7 89.0 1012.8 0.0 6.4 0.0
05:55 17.9 88.0 1012.7 1.6 6.4 0.0
06:05 18.4 88.0 1012.7 0.0 6.4 0.0
06:15 18.4 88.0 1012.7 0.0 6.4 0.0
06:25 18.8 87.0 1012.7 0.0 6.4 0.0
Màxima 18.9 90.0 1014.4 1.6 6.4 0.0
Mínima 17.4 86.0 1012.7
Total 0.0